Regional Weather Roundup
Issued by NWS Portland, ME

Home | Current Version | Previous Version | Text Only | Print | Product List | Glossary On
Versions: 1 2 3 4 5 6 7 8 9 10 11 12 13 14 15 16 17 18 19 20 21 22 23 24 25 26 27 28 29 30 31 32 33 34 35 36 37 38 39 40 41 42 43 44 45 46 47 48 49 50
000
ASUS41 KGYX 221110
RWRGYX
WEATHER ROUNDUP FOR MAINE AND NEW HAMPSHIRE
NATIONAL WEATHER SERVICE GRAY ME
600 AM EST MON DEC 22 2014

MEZ002-005-006-010-012-015-018-020-021-024-026-027-029-221200-
MAINE

CITY           SKY/WX    TMP DP  RH WIND       PRES   REMARKS
PORTLAND       CLOUDY    31  25  78 NW7       30.41R
SANFORD        CLOUDY    28  19  69 N6        30.39R
BAR HARBOR     CLOUDY    28  28 100 N6        30.40S
WISCASSET      CLOUDY    28  25  88 VRB3      30.42R
ROCKLAND       CLOUDY    32  30  93 N6        30.39R
FRYEBURG       CLOUDY    25  22  88 CALM      30.39R
LEWISTONAUBURN CLOUDY    28  23  80 N6        30.39R
AUGUSTA        CLOUDY    26  24  92 N5        30.40R
WATERVILLE     CLOUDY    27  21  80 N5        30.37R
BANGOR         CLOUDY    27  24  89 N3        30.41R
GREENVILLE       N/A     23  21  92 CALM      30.31R
MILLINOCKET    CLOUDY    27  25  92 CALM      30.41R
HOULTON        CLOUDY    24  22  91 CALM      30.39R
PRESQUE ISLE   CLOUDY    23  18  80 CALM      30.38R
FRENCHVILLE    CLOUDY    19  16  88 CALM      30.35R
CARIBOU        CLOUDY    22  20  92 SE3       30.37R
$$

NHZ002-005-008-009-011-012-014-221200-
NEW HAMPSHIRE

CITY           SKY/WX    TMP DP  RH WIND       PRES   REMARKS
PORTSMOUTH     CLOUDY    31  25  78 NW6       30.38R
ROCHESTER      CLOUDY    30  24  78 N6        30.37R
NASHUA         CLOUDY    32  28  85 CALM      30.39R
MANCHESTER     CLOUDY    32  25  75 N6        30.37R
CONCORD        CLOUDY    30  28  92 NW3       30.38R
LACONIA        CLOUDY    30  25  80 NE3       30.35R
PLYMOUTH       CLOUDY    28  28 100 CALM      30.38R
BERLIN         CLOUDY    22  19  89 CALM      30.34R
WHITEFIELD     CLOUDY    25  22  88 CALM      30.34R
JAFFREY        CLOUDY    29  27  92 VRB3      30.34R
KEENE          CLOUDY    30  28  93 CALM      30.36R
LEBANON        CLOUDY    28  24  85 CALM      30.36S
MT WASHINGTON  MOCLDY    12   3  67 W28         N/A  WCI  -9
$$

VTZ005-007-008-221200-
VERMONT

CITY           SKY/WX    TMP DP  RH WIND       PRES   REMARKS
ST JOHNSBURY     N/A     26  22  84 MISG      30.36R
MONTPELIER     CLOUDY    23  20  88 CALM      30.37R
BURLINGTON     CLOUDY    25  21  85 N6        30.38R
$$

MAZ007-012-024-CTZ003-RIZ002-NYZ038-NYZ072-221200-
SOUTHERN NEW ENGLAND AND NY

CITY           SKY/WX    TMP DP  RH WIND       PRES   REMARKS
BOSTON         MOCLDY    34  27  75 NW6       30.38R
WORCESTER      CLOUDY    30  25  81 NE7       30.33R
NANTUCKET      MOCLDY    38  36  92 NE6       30.32R
PROVIDENCE     CLOUDY    35  30  82 N7        30.37R
HARTFORD       CLOUDY    34  30  85 N8        30.34S
ALBANY         LGT SNOW  29  25  85 N5        30.37R FOG
NEW YORK CITY  CLOUDY    36  31  82 N6        30.32S
$$

ANZ081-ANZ082-ANZ150-NHZ014-MEZ023>029-221200-
COASTAL MARINE OBSERVATIONS

STATION/POSITION TIME  TEMP    WIND        PRES    WAVE
                       AIR SEA DIR/SP/G            HT/PER
                 (UTC) (F)     (DEG/KT/KT) (MB)    (FT/S)
MOUNT DESERT ROC 1100   38                 1028.1R
MATINICUS ROCK   1100           20/ 15/ 16 1028.4R
PORTLAND WX BUOY 1050   33 42   10/ 12/ 14 1029.1R   3/ 7
WELLS            1000   31 38   10/  6/  7 1027.9R
ISLE OF SHOALS   1100   34      20/ 16/ 17 1028.1R
JEFFREYS LEDGE   1021      49                N/A     4/ 8
CASHES LEDGE BUO 1050   41 48   30/ 10/ 12 1028.0R   4/ 7
$$

.............KEY..............
   WCI - WIND CHILL
   TC  - TEMPERATURE IN CELSIUS
   VSB - VISIBILITY IN MILES
   HX  - HEAT INDEX
   FAIR- INDICATES FEW OR NO CLOUDS BELOW 12,000 FT, WITH NO
         SIGNIFICANT WEATHER AND/OR OBSTRUCTIONS TO VISIBILITY.





USA.gov is the U.S. government's official web portal to all federal, state and local government web resources and services.